Regional Weather Roundup
Issued by NWS

Home | Current Version | Previous Version | Graphics & Text | Print | Product List | Glossary On
Versions: 1 2 3 4 5 6 7 8 9 10 11 12 13 14 15 16 17 18 19 20 21 22 23 24 25 26 27 28 29 30 31 32 33 34 35 36 37 38 39 40 41 42 43 44 45 46 47 48 49 50
000
ASUS43 KMKX 221900
RWRWI

WISCONSIN REGIONAL WEATHER ROUNDUP
NATIONAL WEATHER SERVICE MILWAUKEE/SULLIVAN WI
100 PM CST WED FEB 22 2017

NOTE: "FAIR" INDICATES FEW OR NO CLOUDS BELOW 12,000 FEET WITH NO
SIGNIFICANT WEATHER AND/OR OBSTRUCTIONS TO VISIBILITY.

WIZ001-002-006>008-014>016-023>028-222000-
NORTHWEST WISCONSIN

CITY           SKY/WX    TMP DP  RH WIND       PRES   REMARKS
SUPERIOR ARPT  CLOUDY    44  37  76 NE7       29.61F
ASHLAND        CLOUDY    40  35  83 NE9       29.62S WCI  34
HAYWARD        LGT RAIN  44  42  93 E6        29.56F
SIREN          CLOUDY    43  43  99 E5        29.57F FOG
CUMBERLAND     LGT RAIN  45  41  87 E8        29.55F
RICE LAKE      LGT RAIN  47  42  81 CALM      29.58F
CHETEK         CLOUDY    50  42  72 NW5       29.58F
LADYSMITH      CLOUDY    49  41  72 N8        29.58F
EAU CLAIRE     NOT AVBL
MENOMONIE      MOSUNNY   53  41  63 NE5       29.55F
NEW RICHMOND   LGT RAIN  50  42  74 SE3       29.55F
OSCEOLA        CLOUDY    48  48 100 N6        29.58S
$$

WIZ003>005-009-010-017-018-222000-
NORTH CENTRAL WISCONSIN

CITY           SKY/WX    TMP DP  RH WIND       PRES   REMARKS
MANITOWISH WTR LGT RAIN  44  43  95 CALM      29.60R
ARBOR VITAE    DRIZZLE   49  42  75 NW8         N/A
WOODRUFF       DRIZZLE   49  42  75 NW8         N/A
RHINELANDER    CLOUDY    55  41  59 VRB5      29.57S
EAGLE RIVER    CLOUDY    48  38  68 N6        29.57S
LAND O LAKES   CLOUDY    48  39  71 N7        29.61R
PHILLIPS       CLOUDY    49  41  75 N7        29.57F
TOMAHAWK       CLOUDY    53  38  58 NW5       29.58S
MEDFORD        CLOUDY    50  39  66 W3        29.56S
MERRILL        NOT AVBL
$$

WIZ029-030-035-036-043>047-222000-
CENTRAL WISCONSIN

CITY           SKY/WX    TMP DP  RH WIND       PRES   REMARKS
WAUSAU         MOSUNNY   53  36  52 S7        29.54F
MOSINEE        PTSUNNY   55  37  50 SW6       29.57F
MARSHFIELD     CLOUDY    56  37  49 SW7       29.55F
STEVENS POINT  MOSUNNY   56  36  47 SW6       29.56F
WAUPACA        MOSUNNY   67  40  37 SW5       29.56F
WAUTOMA        MOSUNNY   67  44  43 SW12      29.55F
WISC RAPIDS    CLOUDY    61  37  41 SW8       29.56F
CAMP DOUGLAS   NOT AVBL
$$

WIZ011>013-019>022-031-037>040-048>050-222000-
NORTHEAST WISCONSIN

CITY           SKY/WX    TMP DP  RH WIND       PRES   REMARKS
ANTIGO         CLOUDY    49  39  69 CALM      29.57S
SHAWANO        CLOUDY    60  43  53 W6        29.56F
OCONTO         PTSUNNY   57  44  62 SE6       29.57F
STURGEON BAY   MOSUNNY   51  44  77 SE9       29.58F
GREEN BAY      MOSUNNY   61  50  67 SW13      29.56F
MANITOWOC      NOT AVBL
APPLETON       PTSUNNY   63  45  51 SW9       29.55F
CLINTONVILLE   CLOUDY    59  43  55 SW3       29.56F
OSHKOSH        SUNNY     63  49  60 SW15G22   29.56F
$$

WIZ032>034-041-042-053>061-222000-
SOUTHWEST WISCONSIN

CITY           SKY/WX    TMP DP  RH WIND       PRES   REMARKS
LA CROSSE      MOSUNNY   59  38  45 S7        29.56F
SPARTA         SUNNY     61  37  41 S9        29.57F
VIROQUA        MOSUNNY   59  39  46 SW15      29.59F
BOSCOBEL       MOSUNNY   65  42  43 SW7       29.59F
PRAIRIE DU CHI CLOUDY    63  39  40 SW5       29.60S
PLATTEVILLE    SUNNY     68  48  49 SW18      29.62F
$$

WIZ056-057-062-063-064-067-068-222000-
SOUTH CENTRAL WISCONSIN

CITY           SKY/WX    TMP DP  RH WIND       PRES   REMARKS
REEDSBURG      SUNNY     65  45  48 SW10G18   29.57S
BARABOO/DELLS  SUNNY     64  42  44 SW13      29.57F
LONE ROCK      NOT AVBL
MINERAL POINT  SUNNY     66  46  48 SW17G24   29.60F
MADISON        PTSUNNY   66  48  52 S16       29.59F
MIDDLETON      SUNNY     68  44  42 SW14G22   29.60F
WATERTOWN      SUNNY     62  49  62 SW18G28   29.61F
MONROE         SUNNY     63  50  63 S21G30    29.63F
JANESVILLE     MOSUNNY   68  50  52 SW14G22   29.63F
$$

WIZ051-052-058>065-066-070>072-222000-
SOUTHEAST WISCONSIN

CITY           SKY/WX    TMP DP  RH WIND       PRES   REMARKS
MILWAUKEE      MOSUNNY   66  51  58 SW20G28   29.64F
WAUKESHA       SUNNY     64  48  55 SW21G29   29.64F
MILWAUKEE/TIMM SUNNY     66  45  45 SW15G24   29.63F
RACINE         SUNNY     67  52  58 SW13G23   29.66F
KENOSHA        SUNNY     65  52  62 SW23      29.66F
FOND DU LAC    SUNNY     65  47  52 SW18G26   29.56F
SHEBOYGAN      SUNNY     68  44  42 S18G26    29.57F
WEST BEND      SUNNY     66  45  45 S16       29.60F
JUNEAU         SUNNY     63  49  61 S22       29.61F
$$

LSZ147-162-222000-
LAKE SUPERIOR

STATION/POSITION TIME  TEMP    WIND        PRES    WAVE
                       AIR SEA DIR/SP/G            HT/PER
                 (UTC) (F)     (DEG/KT/KT) (MB)    (FT/S)
DEVILS ISLAND    1800   35      30/  9/  9 1004.0F
PORT WING        1840   35      20/  7/  8 1003.7R
SAXON HARBOR     1840   35     330/  5/  7 1003.0F
$$

LMZ867-665-643>646-222000-
LAKE MICHIGAN

STATION/POSITION TIME  TEMP    WIND        PRES    WAVE
                       AIR SEA DIR/SP/G            HT/PER
                 (UTC) (F)     (DEG/KT/KT) (MB)    (FT/S)
CHAMBERS ISLAND  1840   53     150/  5/  9 1001.4F
NORTHPORT PIER   1840   44     150/ 11/ 16 1002.0F
SISTER BAY       1805   59     170/ 11/ 13   N/A
KEWAUNEE LAKESHO 1830   38     180/ 14/ 15 1001.9F
SHEBOYGAN LAKESH 1800   41     170/ 20/ 22 1003.0F
PORT WASHINGTON  1840   55     160/ 10/ 15 1003.4F
MILWAUKEE LAKESH 1830   63     230/ 15/ 17   N/A
KENOSHA   LAKESH 1800   62     220/ 14/ 23 1005.8
$$

TC  - TEMPERATURE IN CELSIUS
VSB - VISIBILITY IN STATUTE MILES
WCI - WIND CHILL INDEX
HX  - HEAT INDEX





USA.gov is the U.S. government's official web portal to all federal, state and local government web resources and services.